Charlottesville, VA

8:49 AM EDT on April 23, 2017 (GMT -0400)
Charlottesville-Albemarle

Weather History for KCHO - September, 2013

Change the Weather History Date:

Monday, September 23, 2013

  Actual Average Record
Temperature  
Mean Temperature 57 °F 64 °F  
Max Temperature 68 °F 76 °F 96 °F (2010)
Min Temperature 45 °F 53 °F 37 °F (1904)
Degree Days  
Heating Degree Days 8 3  
Month to date heating degree days 43 26  
Since 1 July heating degree days 48 29  
Cooling Degree Days 0 2  
Month to date cooling degree days 106 100  
Year to date cooling degree days 1108 1010  
Growing Degree Days 7 (Base 50)    
Moisture  
Dew Point 47 °F    
Average Humidity 71    
Maximum Humidity 96    
Minimum Humidity 45    
Precipitation  
Precipitation 0.00 in 0.16 in 0.80 in (2003)
Month to date precipitation 0.65 3.19  
Year to date precipitation 34.17 31.33  
Sea Level Pressure  
Sea Level Pressure 30.05 in    
Wind  
Wind Speed 3 mph (NE)    
Max Wind Speed 10 mph    
Max Gust Speed -    
Visibility 10 miles    
Events      
T = Trace of Precipitation, MM = Missing Value Source: NWS Daily Summary

Daily Weather History Graph

Daily Weather History Graph

Search for Another Location

Airport or City:

Trip Planner

Search our weather history database for the weather conditions in past years. The results will help you decide how hot, cold, wet, or windy it might be!

Date:

Astronomy

Sep. 23, 2013 Rise Set
Actual Time 7:02 AM EDT 7:08 PM EDT
Civil Twilight 6:36 AM EDT 7:35 PM EDT
Nautical Twilight 6:05 AM EDT 8:05 PM EDT
Astronomical Twilight 5:34 AM EDT 8:36 PM EDT
Moon 9:44 PM EDT 11:15 AM EDT
Length of Visible Light 12h 58m
Length of Day
12h 06m
Waning Gibbous, 81% of the Moon is Illuminated
Sep 23
Waning Gibbous
Sep 26
Last Quarter
Oct 4
New
Oct 11
First Quarter
Oct 18
Full

Hourly Weather History & Observations

Time (EDT) Temp. Dew Point Humidity Pressure Visibility Wind Dir Wind Speed Gust Speed Precip Events Conditions
12:53 AM 54.0 °F 50.0 °F 86% 29.96 in 10.0 mi Calm Calm - N/A   Clear
1:53 AM 54.0 °F 46.9 °F 77% 29.97 in 10.0 mi Calm Calm - N/A   Clear
2:53 AM 53.1 °F 46.0 °F 77% 29.99 in 10.0 mi Calm Calm - N/A   Clear
3:53 AM 48.9 °F 46.0 °F 90% 29.99 in 10.0 mi Calm Calm - N/A   Clear
4:53 AM 48.9 °F 46.0 °F 90% 30.00 in 10.0 mi NNW 3.5 mph - N/A   Clear
5:53 AM 46.9 °F 45.0 °F 93% 30.02 in 10.0 mi West 3.5 mph - N/A   Clear
6:53 AM 46.9 °F 45.0 °F 93% 30.05 in 10.0 mi Calm Calm - N/A   Clear
7:53 AM 48.0 °F 46.0 °F 93% 30.07 in 9.0 mi Calm Calm - N/A   Clear
8:53 AM 55.0 °F 46.9 °F 74% 30.09 in 10.0 mi Calm Calm - N/A   Partly Cloudy
9:53 AM 57.0 °F 48.0 °F 72% 30.09 in 10.0 mi East 4.6 mph - N/A   Clear
10:53 AM 59.0 °F 46.0 °F 62% 30.09 in 10.0 mi East 8.1 mph - N/A   Mostly Cloudy
11:53 AM 60.1 °F 45.0 °F 57% 30.09 in 10.0 mi East 4.6 mph - N/A   Mostly Cloudy
12:53 PM 63.0 °F 44.1 °F 50% 30.07 in 10.0 mi North 4.6 mph - N/A   Scattered Clouds
1:53 PM 64.9 °F 45.0 °F 48% 30.05 in 10.0 mi Variable 5.8 mph - N/A   Partly Cloudy
2:53 PM 66.0 °F 45.0 °F 47% 30.04 in 10.0 mi North 8.1 mph - N/A   Clear
3:53 PM 66.9 °F 45.0 °F 45% 30.03 in 10.0 mi Variable 3.5 mph - N/A   Clear
4:53 PM 68.0 °F 46.0 °F 45% 30.02 in 10.0 mi NNE 5.8 mph - N/A   Clear
5:53 PM 66.0 °F 46.9 °F 50% 30.04 in 10.0 mi East 4.6 mph - N/A   Clear
6:53 PM 62.1 °F 48.0 °F 60% 30.05 in 10.0 mi ENE 4.6 mph - N/A   Clear
7:53 PM 55.9 °F 50.0 °F 80% 30.06 in 10.0 mi Calm Calm - N/A   Clear
8:53 PM 55.0 °F 48.9 °F 80% 30.08 in 10.0 mi Calm Calm - N/A   Clear
9:53 PM 52.0 °F 50.0 °F 93% 30.09 in 10.0 mi Calm Calm - N/A   Clear
10:53 PM 51.1 °F 48.9 °F 92% 30.10 in 10.0 mi Calm Calm - N/A   Clear
11:53 PM 51.1 °F 48.9 °F 92% 30.11 in 10.0 mi Calm Calm - N/A   Overcast